www.pogodaiklimat.ru

Погода и климат >> Архив погоды >> Парагвай >> Villarrica


ПОГОДА в Villarrica

  • Прогноз погоды в Villarrica
  • Монитор погоды в Villarrica
  • Климат города

АРХИВ ПОГОДЫ в Villarrica

Время (UTC), дата Ветер
(напр.,м/с)
 
Видим.   Явления Облачность Т
(С)
Тd
(С)
f
(%)
Тe
(С)
Тes
(С)
Комфортность P
(гПа)
Po
(гПа)
Тmin
(С)
Tmax
(С)
R
(мм)
R24
(мм)
S
(см)
21 4.12 СВ 2 20 км ясно +29.0 +14.0 40 +31 +33 жарко 1006.2 987.7
00 5.12 штиль 0 20 км ясно +24.0 +17.4 67 +28 +28 душно 1007.7 988.8 +30.0
03 5.12 штиль 0 20 км ясно +22.8 +16.6 68 +27 +27 душно 1008.2 989.3
06 5.12 штиль 0 20 км ясно +20.4 +14.9 71 +23 +23 комфорт 1007.4 988.4
09 5.12 штиль 0 20 км ясно +17.0 +15.3 90 +17 +17 1008.7 989.6
12 5.12 штиль 0 20 км ясно +25.0 +17.2 62 +29 +41 душно 1010.1 991.4 +17.0
15 5.12 ЮВ 2 20 км ясно +29.2 +12.3 35 +30 +53 опасность
солнечного
удара
1010.5 992.0
18 5.12 Ю 2 20 км ясно +31.0 +14.7 37 +33 +49 душно 1009.5 991.1
21 5.12 ЮВ 1 20 км ясно +30.8 +12.7 33 +32 +35 жарко 1008.9 990.5
00 6.12 ЮВ 1 20 км ясно +26.0 +16.2 55 +29 +29 душно 1010.5 991.7 +31.4
03 6.12 штиль 0 20 км ясно +24.4 +17.1 64 +28 +28 душно 1010.8 991.9
06 6.12 ЮВ 2 20 км ясно +23.0 +14.8 60 +27 +27 душно 1011.8 992.9
09 6.12 штиль 0 20 км ясно +19.0 +15.8 82 +20 +20 1012.1 993.0
12 6.12 штиль 0 20 км ясно +26.6 +19.3 64 +32 +44 очень
душно
1013.9 995.2 +19.0
15 6.12 ЮВ 2 20 км ясно +30.4 +18.7 50 +36 +59 опасность
солнечного
удара
1013.7 995.2
18 6.12 Ю 5 20 км 4/4 1200 м
[Cu hum]
+32.0 +16.2 39 +35 +40 очень
душно
1012.2 993.9
21 6.12 Ю 4 20 км 8/8 600 м
[Sc]
+28.6 +18.2 53 +33 +34 очень
душно
1012.8 994.1
00 7.12 Ю 6 20 км 6/0 2000 м
[Ac lent]
+24.0 +15.6 59 +27 +27 жарко 1015.6 996.6 +32.0
03 7.12 Ю 3 20 км ясно +22.0 +15.3 66 +26 +26 душно 1016.4 997.3
06 7.12 Ю 6 20 км ясно +19.6 +13.4 67 +21 +21 комфорт 1016.5 997.7
09 7.12 ЮВ 2 20 км 5/0 2000 м
[Ac und]
+16.6 +14.1 85 +17 +17 1017.7 998.4
12 7.12 ЮВ 2 20 км 6/0 2000 м
[Ac und]
+20.6 +12.6 60 +23 +28 комфорт 1019.5 1000.3 +16.6
15 7.12 ЮВ 2 20 км ясно +25.2 +10.9 41 +26 +48 жарко 1019.1 1000.1
18 7.12 Ю 4 20 км ясно +27.0 +11.4 38 +28 +40 жарко 1017.9 999.0
21 7.12 Ю 4 20 км ясно +26.4 +13.8 46 +29 +30 жарко 1017.5 998.6
00 8.12 Ю 3 20 км ясно +22.0 +13.5 59 +25 +25 комфорт 1018.6 999.4 +27.4
03 8.12 Ю 3 20 км ясно +20.2 +14.7 71 +23 +23 комфорт 1019.1 999.8
06 8.12 Ю 2 20 км ясно +17.6 +12.9 74 +18 +18 1018.3 999.0
09 8.12 Ю 2 20 км ясно +16.8 +13.3 80 +17 +17 1018.3 999.0
12 8.12 ЮВ 2 20 км ясно +21.0 +12.1 57 +24 +34 комфорт 1018.7 999.6 +15.0
15 8.12 ЮВ 2 20 км ясно +21.0 +12.1 57 +24 +47 комфорт 1018.7 999.6
18 8.12 Ю 2 20 км ясно +28.0 +10.2 33 +28 +45 жарко 1016.3 997.6
21 8.12 Ю 2 20 км ясно +27.4 +11.2 36 +28 +31 жарко 1015.6 996.8
00 9.12 ЮВ 1 20 км ясно +22.4 +11.2 49 +25 +25 комфорт 1013.7 994.6 +29.0
03 9.12 ЮВ 1 20 км ясно +19.0 +11.7 63 +21 +21 комфорт 1014.3 995.0
06 9.12 штиль 0 20 км ясно +17.4 +13.1 76 +17 +17 1014.4 995.0
09 9.12 СВ 2 20 км ясно +19.8 +12.9 64 +22 +22 комфорт 1013.8 994.6
12 9.12 СВ 6 20 км ясно +25.0 +15.0 54 +28 +32 жарко 1015.0 996.1 +17.4
15 9.12 СВ 6 20 км 3/0
[Ci fib]
+28.4 +16.4 48 +32 +39 душно 1015.3 996.6
18 9.12 СВ 4 20 км 5/0
[Ci]
+31.4 +14.3 35 +33 +44 жарко 1012.1 993.6
21 9.12 СВ 2 20 км 6/0
[Cs]
+31.0 +16.5 42 +34 +37 душно 1011.0 992.5
00 10.12 СВ 1 20 км ясно +25.4 +16.7 59 +29 +29 душно 1013.5 994.6 +32.2
03 10.12 СВ 1 20 км ясно +24.2 +13.8 52 +26 +26 жарко 1014.8 995.8
09 10.12 В 2 20 км 3/0 2000 м
[Ac lent]
+24.6 +13.8 51 +27 +27 жарко 1013.5 994.8
12 10.12 СВ 3 20 км ясно +27.2 +15.7 49 +30 +38 душно 1014.7 996.0 +21.8
15 10.12 СВ 3 20 км ясно +30.6 +18.7 49 +36 +55 опасность
солнечного
удара
1014.6 996.2
18 10.12 СВ 2 20 км 3/3 1200 м
[Cu hum]
+35.0 +19.9 41 +41 +52 опасность
перегрева
1012.6 994.3
21 10.12 СВ 2 20 км ясно +35.0 +20.0 42 +41 +44 опасность
перегрева
1011.4 993.1
00 11.12 СВ 1 20 км ясно +30.4 +22.5 63 +40 +40 очень
душно
1012.7 994.1 +35.4
03 11.12 штиль 0 20 км ясно +29.2 +21.6 64 +37 +37 очень
душно
1013.3 994.6
06 11.12 штиль 0 20 км ясно +27.4 +19.1 61 +33 +33 очень
душно
1011.9 993.3
09 11.12 СВ 2 20 км ясно +26.2 +19.6 67 +32 +32 очень
душно
1011.4 992.5
12 11.12 СВ 2 20 км 3/3 1200 м
[Cu hum]
+29.8 +17.5 48 +34 +40 очень
душно
1012.3 993.9 +26.0
15 11.12 С 4 20 км ясно +35.6 +17.9 35 +39 +55 опасность
солнечного
удара
1011.4 993.4
18 11.12 С 6 20 км 1/1 1200 м
[Cu hum]
+36.2 +19.1 37 +41 +48 опасность
перегрева
1010.8 992.6

 

Местоположение метеостанции Villarrica (Парагвай): широта -25.75 долгота -56.43 высота над уровнем моря 161 м.

В архиве по умолчанию представлена погода в Villarrica за последнюю неделю. Архивные данные за месяц целиком и за предыдущие месяцы, начиная с января 2011 года, Вы можете получить, выбрав интересующий диапазон дат из раскрывающегося списка и нажав кнопку "Ввод!".


*Определитесь, кто Вы:
робот инопланетянин человек

Внимание! Время в таблицах - всемирное. Для получения местного времени необходимо прибавить поправку, которая в Villarrica равна -4 ч.

Смотрите также архив погоды в соседних городах и на ближайших метеорологических станциях:

Погода в Coronel Oviedo (Парагвай) (34 км)
Погода в Caazapa (Парагвай) (48 км)
Погода в Paraguari (Парагвай) (71 км)
Погода в Quyquyhat (Парагвай) (76 км)
Погода в Asuncion (Парагвай) (122 км)
Погода в San Estanislao (Парагвай) (122 км)
Погода в San Juan Bautista Misiones (Парагвай) (124 км)
Погода в Aeropuerto Int. Guarani (Парагвай) (162 км)
Погода в Capitan Meza (Парагвай) (180 км)
Погода в Encarnacion (Парагвай) (183 км)

Пояснения к столбцам:

Ветер - указаны скорость ветра в м/с - средняя за 10 мин, порывы в срок и между сроками (в фигурных скобках) и направление, откуда дует ветер: С - северный, СВ - северо-восточный, В - восточный, ЮВ - юго-восточный, Ю - южный, ЮЗ - юго-западный, З - западный, СЗ - северо-западный.
Видимость - горизонтальная дальность видимости в метрах или километрах. При видимости от 1 до 10 км при отсутствии осадков обычно наблюдается дымка, при ухудшении видимости до 1 км и менее - туман. В сухую погоду видимость может ухудшаться дымом, пылью или мглою.
Явления - указаны атмосферные явления, наблюдавшиеся в срок или в последний час перед сроком; фигурными скобками обозначены явления, наблюдавшиеся между сроками (за 1-3 часа до срока); квадратными скобками обозначены град или гололедные отложения с указанием их диаметра в мм.
Облачность - указаны через наклонную черту общая и нижняя облачность в баллах и высота нижней границы облаков в метрах; квадратными скобками обозначены формы облаков: Ci - перистые, Cs - перисто-слоистые, Cc - перисто-кучевые, Ac - высококучевые, As - высокослоистые, Sc - слоисто-кучевые, Ns - слоисто-дождевые, Cu - кучевые, Cb - кучево-дождевые. Подробнее классификацию облаков см. в Атласе облаков (PDF).
T - Температура воздуха - температура, измеренная на высоте 2 м над землей.
Td - Температура точки росы - температура, при понижении до которой содержащийся в воздухе водяной пар достигнет насыщения.
f - Относительная влажность воздуха - влажноcть воздуха, измеренная на высоте 2 м над землей.
Te - Эффективная температура - температура, которую ощущает одетый по сезону человек в тени. Характеристика душности погоды. При расчете учитывается влияние влажности воздуха и скорости ветра на теплоощущения человека.
Tes - Эффективная температура на солнце - температура, которую ощущает человек, с поправкой на солнечный нагрев. Характеристика знойности погоды. Зависит от высоты солнца над горизонтом, облачности и скорости ветра. Ночью, в пасмурную погоду, а также при ветре 12 м/с и более поправка равна нулю.
P - Атмосферное давление - приведенное к уровню моря атмосферное давление.
Po - Атмосферное давление - измеренное на уровне метеостанции атмосферное давление.
Tmin - Минимальная температура - минимум температуры воздуха на высоте 2 м над землей.
Tmax - Максимальная температура - максимум температуры воздуха на высоте 2 м над землей.
R - Количество осадков - Количество выпавших осадков за период времени, мм. При наведении курсора мыши на число - период времени, за который выпало указанное количество осадков.
R24 - Количество осадков - Количество выпавших осадков за 24 часа, мм.
S - Снежный покров - Высота снежного покрова, см. При наведении курсора мыши на число - состояние снежного покрова и степень покрытия местности в баллах.